User: anonymous   Login
Location: Vallejo Observatory
(38.1221°N, 122.2109°W)
Time: 10:24:57
(UTC-07:00)
Language:

MOS 1 Rocket - Orbit

View from above orbital plane
View from above orbital plane
View from above satellite
View from above satellite

Ground track
Ground track

The orbit data is extracted from the following two-line orbital elements,

1 17528U 87018B   17294.51319968  .00000093  00000-0  30363-4 0  9993
2 17528  97.4659 237.3247 0150570 261.8049 231.0134 14.50811601618197
Epoch (UTC): 21 October 2017 12:19:00
Eccentricity: 0.0150570
inclination: 97.4659°
perigee height: 616 km
apogee height: 830 km
right ascension of ascending node: 237.3247°
argument of perigee: 261.8049°
revolutions per day: 14.50811601
mean anomaly at epoch: 231.0134°
orbit number at epoch: 61819

The dashed part of the orbit path shows where the satellite is in the earth's shadow,  

DLR